Orbital Elements at Epoch 2459200.5 (2020-Dec-17.0) TDB
Reference: JPL 18 (heliocentric ecliptic J2000)
Element | Value | Uncertainty (1-sigma) | Units |
e | .1301759437192425 | 3.477e-08 | |
a | 2.284956058746944 | 1.016e-08 | au |
q | 1.98750974744256 | 8.1784e-08 | au |
i | 5.269102217881453 | 4.2826e-06 | deg |
node | 225.8507146704153 | 4.1698e-05 | deg |
peri | 280.9504596525709 | 4.5654e-05 | deg |
M | 39.6239747850063 | 1.689e-05 | deg |
tp | 2459061.642051783693 (2020-Jul-31.14205178) | 5.9152e-05 | TDB |
period | 1261.581192424598 3.45 | 8.4145e-06 2.304e-08 | d yr |
n | .2853561880612106 | 1.9033e-09 | deg/d |
Q | 2.582402370051329 | 1.1483e-08 | au |
|
| | Orbit Determination Parameters
Additional Information
|